Regional Weather Roundup
Issued by NWS Charleston, WV

Home | Current Version | Previous Version | Text Only | Print | Product List | Glossary Off
Versions: 1 2 3 4 5 6 7 8 9 10 11 12 13 14 15 16 17 18 19 20 21 22 23 24 25 26 27 28 29 30 31 32 33 34 35 36 37 38 39 40 41 42 43 44 45 46 47 48 49 50

000
ASUS41 KRLX 220110
RWRRLX
West Virginia Regional Weather Roundup
National Weather Service Charleston WV
800 PM EST SUN DEC 21 2014

Note: "fair" indicates few or no clouds below 12,000 feet with no
significant weather and/or obstructions to visibility.

WVZ003-220200-
Northern Panhandle of West Virginia

CITY           SKY/WX    TMP DP  RH WIND       PRES   REMARKS
WHEELING       CLEAR     28  21  75 NE8       30.20F
$$

WVZ009-220200-
Northwest West Virginia

CITY           SKY/WX    TMP DP  RH WIND       PRES   REMARKS
PARKERSBURG    CLEAR     30  24  78 CALM      30.22S
$$

WVZ006-220200-
Western West Virginia

CITY           SKY/WX    TMP DP  RH WIND       PRES   REMARKS
HUNTINGTON     PTCLDY    35  26  69 NE5       30.16F
$$

WVZ015-220200-
West Central West Virginia

CITY           SKY/WX    TMP DP  RH WIND       PRES   REMARKS
CHARLESTON     PTCLDY    34  27  75 CALM      30.16F
$$

WVZ022-031-220200-
North Central West Virginia

CITY           SKY/WX    TMP DP  RH WIND       PRES   REMARKS
CLARKSBURG     PTCLDY    31  24  75 N6        30.19S
MORGANTOWN     PTCLDY    30  20  66 N5        30.20F
$$

WVZ025-035-042-045-220200-
Southern West Virginia

CITY           SKY/WX    TMP DP  RH WIND       PRES   REMARKS
BECKLEY        CLEAR     37  28  70 SE7       30.12S
LOGAN            N/A     36  27  69 NE5       30.13S
BLUEFIELD      PTCLDY    39  31  72 SE12G18   30.12S
LEWISBURG      CLEAR     35  28  74 CALM      30.16F
$$

WVZ047-220200-
Northern Mountains of West Virginia

CITY           SKY/WX    TMP DP  RH WIND       PRES   REMARKS
ELKINS         CLEAR     27  25  92 CALM      30.16S
$$

WVZ052-220200-
Eastern Panhandle of West Virginia

CITY           SKY/WX    TMP DP  RH WIND       PRES   REMARKS
MARTINSBURG    PTCLDY    30  20  66 CALM      30.30R
PETERSBURG     CLEAR     29  25  84 W3        30.25F
$$


USA.gov is the U.S. government's official web portal to all federal, state and local government web resources and services.